Regional Weather Roundup
Issued by NWS Charleston, SC

Home | Current Version | Previous Version | Text Only | Print | Product List | Glossary On
Versions: 1 2 3 4 5 6 7 8 9 10 11 12 13 14 15 16 17 18 19 20 21 22 23 24 25 26 27 28 29 30 31 32 33 34 35 36 37 38 39 40 41 42 43 44 45 46 47 48 49 50
000
ASUS42 KCHS 250912
RWRCHS

REGIONAL WEATHER ROUNDUP
NATIONAL WEATHER SERVICE CHARLESTON SC
500 AM EDT THU MAY 25 2017

NOTE: "FAIR" INDICATES FEW OR NO CLOUDS BELOW 12,000 FEET WITH NO
SIGNIFICANT WEATHER AND/OR OBSTRUCTIONS TO VISIBILITY.

NOT ALL STATIONS ARE QUALITY CONTROLLED. USE DATA WITH CAUTION...
ESPECIALLY DEWPOINT OBSERVATIONS.

SCZ027-030-031-034>040-042>050-251000-
...SOUTHEAST SOUTH CAROLINA...

CITY           SKY/WX    TMP DP  RH WIND       PRES   REMARKS
N CHARLESTON   PTCLDY    67  63  87 SW9       29.60R
WATERFRONT PRK   N/A     71  66  84 SW8       29.57R
JOHNS ISLAND   NOT AVBL
PINOPOLIS        N/A     70  68  94 SW10      29.49R
MONCKS CORNER  NOT AVBL
SUMMERVILLE    NOT AVBL
BEAUFORT MCAS  PTCLDY    67  63  87 SW16      29.63R
BEAUFORT ARPT  NOT AVBL
HILTON HEAD IS NOT AVBL
WALTERBORO     NOT AVBL
ALLENDALE      NOT AVBL

...SOUTHERN MIDLANDS AND PEE DEE...

CITY           SKY/WX    TMP DP  RH WIND       PRES   REMARKS
GEORGETOWN     NOT AVBL
KINGSTREE      NOT AVBL
ORANGEBURG     CLOUDY    64  63  96 SW8       29.59R
BARNWELL       NOT AVBL
AIKEN          NOT AVBL
MANNING        NOT AVBL
COLUMBIA       CLEAR     62  59  90 SW8       29.56R
SUMTER         CLEAR     62  60  93 S7        29.54R
FLORENCE       CLEAR     65  64  97 SW9       29.55R
MYRTLE BEACH   PTCLDY    69  66  90 SW6       29.58R
N MYRTLE BEACH CLOUDY    71  66  84 SW9       29.55S

$$

GAZ063-065-086>088-099>101-113>116-118-119-134>141-150-251000-
...SOUTHEAST GEORGIA...

CITY           SKY/WX    TMP DP  RH WIND       PRES   REMARKS
SAVANNAH ARPT  CLEAR     65  59  81 W9        29.66R
HUNTER AAF     PTCLDY    65  65 100 SW8       29.64R
FORT STEWART   CLEAR     64  59  83 SW5       29.65R
STATESBORO     CLEAR     63  63 100 W3        29.65R
SYLVANIA       SUNNY     63  62  97 W6        29.65R
CLAXTON        FAIR      62  62 100 SW5       29.66R

...CSRA...CENTRAL AND FAR SOUTHEAST GEORGIA...

CITY           SKY/WX    TMP DP  RH WIND       PRES   REMARKS
THOMSON        PTCLDY    58  55  90 NW7       29.65R
AUGUSTA-BUSH   PTCLDY    62  58  86 SW8       29.60R
AUGUSTA-DANIEL CLEAR     61  56  83 W6        29.60R
SWAINSBORO     FAIR      59  59 100 W5        29.66R
VIDALIA        NOT AVBL
EASTMAN        PTSUNNY   61  52  73 W3        29.70R
HAZLEHURST     FAIR      62  62 100 CALM      29.66R
ALMA           PTCLDY    61  58  90 SW5       29.68R
WAYCROSS       PTCLDY    65  65 100 SW6       29.69R
JESUP          FAIR      64  61  88 CALM      29.68S
BAXLEY         FAIR      63  63 100 CALM      29.66S
BRUNSWICK      PTCLDY    66  63  88 W9        29.69S
SAINT SIMONS   CLEAR     68  63  84 W10       29.68R

$$

SCZ027-028-034-036>038-045-046-048>050-GAZ119-141-251000-
...LAKE AND SUPPLEMENTAL COASTAL OBSERVATIONS...

STATION/POSITION TIME  TEMP    WIND        PRES    WAVE   SWELL
                       AIR SEA DIR/SP/G            HT/PER HT/PER/DIR
                 (UTC) (F)     (DEG/KT/KT) (MB)    (FT/S) (FT/S/D)
WINYAH BAY       0745   71     230/  8     1001.0
LAKE MURRAY      0820   64     230/  9/ 12  999.7
ACE BASIN NERRS  0745   69     240/  2     1002.0
FORT PULASKI     0848   68     270/ 11/ 15 1004.3R
SAPELO ISLAND    0800   70     240/ 15     1004.0

$$

ANZ835-935-AMZ111-154-330-350-352-354-370-450-454-472-251000-
...C-MAN AND BUOY OBSERVATIONS...

STATION/POSITION TIME  TEMP    WIND        PRES    WAVE   SWELL
                       AIR SEA DIR/SP/G            HT/PER HT/PER/DIR
                 (UTC) (F)     (DEG/KT/KT) (MB)    (FT/S) (FT/S/D)
BUOY 41004       0850   75 76  230/ 25/ 31 1002.0R  11/ 7
BUOY 41008       0750   73 77  230/ 23/ 27 1003.1    6/ 6
FOLLY BEACH CMAN 0800   72     230/ 12/ 15 1002.0S
CAPERS NEARSHORE 0808   78 77  240/ 21/ 29 1000.7F
FRIPP NEARSHORE  0808   73 77  250/ 21/ 29 1001.2R


STATION/POSITION TIME  TEMP    WIND        PRES    WAVE   SWELL
                       AIR SEA DIR/SP/G            HT/PER HT/PER/DIR
                 (UTC) (F)     (DEG/KT/KT) (MB)    (FT/S) (FT/S/D)
5E ST. MARYS GA  0830      78                N/A     3/ 5
FRYING PAN BUOY  0850   77 76  230/ 25/ 31 1001.0S   8/ 7
BUOY 41025       0850   74 76  200/ 17/ 19 1001.2F   6/ 6   2/110/10
CAPE LOOKOUT NC  0800   72     180/ 20/ 24 1000.2F
BUOY 41002       0750   78 77  180/ 29/ 35 1006.6    9/ 8
BUOY 41010       0850   79 78  220/ 17/ 21 1008.6F   8/ 8   3/ 40/12
ST AUGUSTINE FL  0900   70 76  250/  5/  7 1007.8R


$$



USA.gov is the U.S. government's official web portal to all federal, state and local government web resources and services.